Regional Weather Roundup
Issued by NWS

Home | Current Version | Previous Version | Text Only | Print | Product List | Glossary Off
Versions: 1 2 3 4 5 6 7 8 9 10 11 12 13 14 15 16 17 18 19 20 21 22 23 24 25 26 27 28 29 30 31 32 33 34 35 36 37 38 39 40 41 42 43 44 45 46 47 48 49 50

000
ASUS45 KCYS 020110
RWRWY

WYOMING REGIONAL WEATHER ROUNDUP
NATIONAL WEATHER SERVICE CHEYENNE WY
600 PM MST SUN MAR 01 2015

NOTE:  "FAIR" INDICATES FEW OR NO CLOUDS BELOW 12,000 FEET
WITH NO SIGNIFICANT WEATHER AND/OR OBSTRUCTIONS TO VISIBILITY.

WYZ001-020200-
YELLOWSTONE NATIONAL PARK

CITY           SKY/WX    TMP DP  RH WIND       PRES   REMARKS
LK YELLOWSTONE   N/A     12  -4  48 CALM      30.00F
W YELLOWSTONE  NOT AVBL

$$
WYZ002>013-054>058-071-098>099-020200-
NORTHERN WYOMING

CITY           SKY/WX    TMP DP  RH WIND       PRES   REMARKS
JACKSON        CLEAR     19  12  73 CALM      30.01F
CODY           FAIR      25  12  58 SE9       30.08F WCI  15
GREYBULL       FAIR      27   7  42 S8        30.15F WCI  19
WORLAND        FAIR      26  11  52 SE9       30.15F WCI  17
SHERIDAN       FAIR      20   9  62 SE5       30.16F WCI  13
BUFFALO        FAIR      18   9  68 S10       30.13F WCI   6
GILLETTE       FAIR      17   6  62 CALM      30.18S
HULETT         FAIR      19   7  58 E5        30.21S WCI  13
NEWCASTLE      FAIR      21   1  42 CALM      30.24R

$$
WYZ014>020-022>026-101>103-020200-
CENTRAL WYOMING

CITY           SKY/WX    TMP DP  RH WIND       PRES   REMARKS
BIG PINEY      FAIR      25  15  66 NE9       30.04F WCI  15
PINEDALE       FAIR      18  10  73 CALM      30.06S
DUBOIS         FAIR      18  10  73 S8        30.01F WCI   7
LANDER         FAIR      19  10  68 W6        30.09F WCI  11
RIVERTON       FAIR      19   7  59 NE5       30.11F WCI  12
CASPER         FAIR      24  11  57 CALM      30.12F
DOUGLAS        FAIR      22  11  62 E7        30.19F WCI  13

$$
WYZ021-027>030-104>119-020200-
SOUTHERN WYOMING

CITY           SKY/WX    TMP DP  RH WIND       PRES   REMARKS
EVANSTON       FAIR      27  19  72 E7        30.01R WCI  19
KEMMERER       FAIR      28  14  54 SE3       30.02S
FORT BRIDGER   FAIR      27  20  75 S3        30.06R
ROCK SPRINGS   FAIR      28  17  63 SE5       30.03F WCI  23
DIXON          FAIR      34  22  62 CALM      30.07S
RAWLINS        CLOUDY    28  16  60 SE7       30.07S WCI  21
SARATOGA       FAIR      28  21  74 MISG      30.06S
LARAMIE        FAIR      17  13  84 S9        30.08F WCI   6
CHEYENNE       MOCLDY    21  13  71 SW12      30.16R WCI   9
TORRINGTON     FAIR      29   6  38 NE5       30.22S WCI  24
PINE BLUFFS    FAIR      27  16  63 CALM      30.22S

$$


USA.gov is the U.S. government's official web portal to all federal, state and local government web resources and services.